HAWK-2C (47502 NORAD) Tracking and Keplerian Element Data

This shows tracking and keplerian element data for the satellite.

Feedback or suggestion? Click here.




ElementValue
Catalog47502
NameHAWK-2C
Epoch Orbit1198
Epoch Day101.89238004
Epoch Year2021
RAAN164.2023
Inclination97.4945
Eccentricity0.0010036
Argument of Perigee346.7608
Mean Anonmoly13.3358
Mean Motion15.12143987
Decay Rate3.85E-06
L11 47502U 21006CT 21101.89238004 .00000385 00000-0 26030-4 0 9997
L22 47502 97.4945 164.2023 0010036 346.7608 13.3358 15.12143987 11983

Live tracking and technical data element details for HAWK-2C (NORAD 47502). HAWK-2C can be tracked NOW for your location showing map with azimuth and elevation plus other details from your city location.

Track the satellite on the map from your city or location and see movement details for azimuth, elevation, latitude, longitude, range, height, and movement on the map or in text.







IsCatalogInMostPopularTable: catalog: 47502, numindb: 12
Update: records affected: 1



GetName: 47502 HAWK-2C

Hit Count: updated at: Tue, 13 Apr 2021 03:47:40 GMT